EW7614 Weather Reports


Display with metric or nautical units.
time (UTC)temp
F
wind
direction
speed
MPH
gust
MPH
rain 1hr
in
rain 24hr
in
rain mn
in
humidity
%
barometer
mb
20260507181608 49 294 0.0 0.0 0.00 0.01 0.01 88 1013.0
20260507180032 49 309 0.0 3.0 0.00 0.01 0.01 87 1012.8
20260507174608 50 281 0.0 1.0 0.00 0.01 0.01 86 1012.7
20260507173034 50 42 0.0 1.0 0.00 0.01 0.01 85 1012.6
20260507171610 50 38 0.0 0.0 0.00 0.01 0.01 86 1012.5
20260507170020 51 96 0.0 4.0 0.00 0.01 0.01 83 1012.5
20260507164608 51 74 0.0 2.0 0.00 0.01 0.01 84 1012.3
20260507163017 51 75 0.0 1.0 0.00 0.01 0.01 86 1012.3
20260507161558 51 345 0.0 5.0 0.01 0.01 0.01 85 1012.1
20260507160133 51 103 0.0 3.0 0.01 0.01 0.01 86 1012.0
20260507154542 51 57 0.0 4.0 0.01 0.01 0.01 85 1011.9
20260507153130 51 155 0.0 3.0 0.01 0.01 0.01 84 1011.9
20260507151540 51 238 0.0 5.0 0.00 0.00 0.00 83 1011.7
20260507150116 51 195 0.0 2.0 0.00 0.00 0.00 80 1011.4
20260507144653 52 188 0.0 2.0 0.00 0.00 0.00 81 1011.2
20260507143105 53 152 0.0 1.0 0.00 0.00 0.00 78 1011.2
20260507141629 54 97 0.0 4.0 0.00 0.00 0.00 75 1011.1
20260507140038 54 78 2.0 8.0 0.00 0.00 0.00 75 1010.7
20260507134544 54 71 1.0 8.0 0.00 0.00 0.00 73 1010.5
20260507133110 55 60 1.0 10.0 0.00 0.00 0.00 76 1010.6
20260507131615 54 294 1.0 8.0 0.00 0.00 0.00 75 1010.8
20260507130038 55 57 2.0 11.0 0.00 0.00 0.00 75 1010.4
20260507124618 55 65 2.0 8.0 0.00 0.00 0.00 79 1010.5
20260507123013 53 192 3.0 7.0 0.00 0.00 0.00 78 1010.4
20260507121544 53 258 2.0 7.0 0.00 0.00 0.00 76 1010.4
20260507120131 54 198 2.0 6.0 0.00 0.00 0.00 71 1010.1
20260507114611 55 195 3.0 9.0 0.00 0.00 0.00 70 1010.0
20260507113015 56 140 0.0 4.0 0.00 0.00 0.00 73 1010.0
20260507111551 54 298 0.0 5.0 0.00 0.00 0.00 76 1009.9
20260507110121 53 177 0.0 9.0 0.00 0.00 0.00 81 1009.9
20260507104528 51 159 0.0 3.0 0.00 0.00 0.00 84 1010.0
20260507103002 52 292 4.0 18.0 0.00 0.00 0.00 78 1010.1
20260507101541 54 279 5.0 15.0 0.00 0.00 0.00 69 1009.6
20260507100115 56 318 8.0 15.0 0.00 0.00 0.00 64 1009.2
20260507094550 59 342 4.0 12.0 0.00 0.00 0.00 61 1008.9
20260507093053 61 11 1.0 6.0 0.00 0.00 0.00 57 1008.7
20260507091549 60 339 1.0 5.0 0.00 0.00 0.00 63 1008.7
20260507090046 58 221 0.0 1.0 0.00 0.00 0.00 59 1008.6
20260507084550 60 213 0.0 2.0 0.00 0.00 0.00 58 1008.5
20260507083044 60 82 0.0 2.0 0.00 0.00 0.00 58 1008.7
20260507081540 58 161 0.0 2.0 0.00 0.00 0.00 63 1008.7
20260507080015 58 34 0.0 2.0 0.00 0.00 0.00 64 1008.9
20260507074559 54 302 0.0 1.0 0.00 0.00 0.00 74 1009.0
20260507073010 53 38 0.0 1.0 0.00 0.00 0.00 76 1009.2
20260507071606 52 83 0.0 1.0 0.00 0.00 0.00 81 1009.2
20260507070138 50 256 0.0 1.0 0.00 0.00 0.00 82 1009.3
20260507064541 48 283 0.0 1.0 0.00 0.00 0.00 81 1009.3
20260507063130 48 299 0.0 1.0 0.00 0.00 0.00 84 1009.3
20260507061538 47 306 1.0 3.0 0.00 0.00 0.00 84 1009.3
20260507060120 47 220 0.0 0.0 0.00 0.00 0.00 84 1009.2
20260507054512 47 215 0.0 0.0 0.00 0.00 0.00 84 1009.0
20260507053120 46 214 0.0 0.0 0.00 0.00 0.00 86 1008.8
20260507051519 46 214 0.0 0.0 0.00 0.00 0.00 84 1008.7
20260507050054 46 214 0.0 0.0 0.00 0.00 0.00 85 1008.7
20260507044516 45 213 0.0 0.0 0.00 0.00 0.00 88 1008.5
20260507043108 44 215 0.0 0.0 0.00 0.00 0.00 88 1008.4
20260507041538 44 259 0.0 2.0 0.00 0.00 0.00 89 1008.3
20260507040126 44 273 0.0 0.0 0.00 0.00 0.00 89 1008.3
20260507034538 44 277 0.0 0.0 0.00 0.00 0.00 88 1008.0
20260507033134 44 273 0.0 0.0 0.00 0.00 0.00 87 1007.9
20260507031554 44 273 0.0 1.0 0.00 0.00 0.00 86 1007.9
20260507030133 44 52 0.0 1.0 0.00 0.00 0.00 87 1007.8
20260507024602 43 271 0.0 0.0 0.00 0.00 0.00 87 1008.0
20260507023040 43 272 0.0 1.0 0.00 0.00 0.00 85 1007.9
20260507021631 44 197 0.0 0.0 0.00 0.00 0.00 85 1007.9
20260507020050 45 197 0.0 0.0 0.00 0.00 0.00 82 1007.7
20260507014510 46 148 0.0 0.0 0.00 0.00 0.00 81 1007.6
20260507013053 47 74 0.0 1.0 0.00 0.00 0.00 77 1007.5
20260507011514 48 266 0.0 1.0 0.00 0.00 0.00 76 1007.4
20260507010109 49 71 0.0 1.0 0.00 0.00 0.00 75 1007.4
20260507004532 49 151 0.0 2.0 0.00 0.00 0.00 74 1007.2
20260507003120 49 114 0.0 1.0 0.00 0.00 0.00 74 1007.1
20260507001549 50 161 0.0 6.0 0.00 0.00 0.00 72 1007.0
20260507000129 50 147 0.0 7.0 0.00 0.00 0.00 75 1007.0
20260506234544 49 109 0.0 1.0 0.00 0.00 0.00 73 1007.1
20260506233125 49 146 0.0 8.0 0.00 0.00 0.00 73 1006.9
20260506231544 50 173 4.0 9.0 0.00 0.00 0.00 71 1006.9
20260506230131 50 135 0.0 6.0 0.00 0.00 0.00 73 1006.8
20260506224542 50 135 0.0 6.0 0.00 0.00 0.00 71 1006.6
20260506223134 51 160 3.0 8.0 0.00 0.00 0.00 70 1006.6
20260506221544 51 188 4.0 8.0 0.00 0.00 0.00 71 1006.6
20260506220001 51 78 1.0 6.0 0.00 0.00 0.00 74 1006.5
20260506214606 52 167 2.0 7.0 0.00 0.00 0.00 73 1006.2
20260506213025 51 148 1.0 6.0 0.00 0.00 0.00 72 1006.1
20260506211608 50 105 1.0 3.0 0.00 0.00 0.00 77 1005.9
20260506210021 50 320 0.0 6.0 0.00 0.00 0.00 74 1005.8
20260506204610 48 252 0.0 1.0 0.00 0.00 0.00 80 1005.6
20260506203029 51 200 0.0 5.0 0.00 0.00 0.00 74 1005.4
20260506201623 49 187 0.0 1.0 0.00 0.00 0.00 79 1005.2
20260506200044 51 243 0.0 1.0 0.00 0.00 0.00 78 1005.0
20260506194631 52 209 0.0 1.0 0.00 0.00 0.00 76 1004.8
20260506193044 53 195 2.0 5.0 0.00 0.00 0.00 74 1004.6
20260506191504 54 274 0.0 2.0 0.00 0.00 0.00 72 1004.6
20260506184522 55 266 3.0 9.0 0.00 0.00 0.00 68 1004.0
20260506183130 57 295 7.0 10.0 0.00 0.00 0.00 62 1003.7